Home > Time Zones > World Clock > Weather > U.S.A. > Adak > Past weeks

Flag for U.S.A. Weather past 2 weeks in Adak, Alaska, U.S.A.

Now
28 °F

Passing clouds.


Feels Like: 25 °F
Forecast: 33 / 40 °F
Wind: 3 mph from West

Location: Adak

Current Time: Mar 3, 2015 at 7:25:58 AM

Latest Report: Mar 3, 2015 at 6:56 AM


Visibility: 10 mi

Pressure: 30.33 "Hg

Humidity: 74%

Dew point: 21 °F

Location of AdakLocation

Historic Weather in Adak — Graph

°F

Adak temperature yesterday

Maximum temperature yesterday: 39 °F (at 2:56 AM)
Minimum temperature yesterday: 34 °F (at 7:16 PM)
Average temperature yesterday: 36 °F

Past Weeks' High & Low Weather Summary

 TemperatureHumidityPressure
High39 °F (Feb 16, 3:16 PM)93% (Feb 17, 6:16 AM)30.34 "Hg (Feb 17, 6:16 AM)
Low19 °F (Feb 24, 3:16 AM)44% (Feb 23, 3:56 PM)29.45 "Hg (Feb 16, 10:36 AM)
Average35 °F69%29.88 "Hg
* Reported Feb 16 6:16 AM — Mar 3 6:16 AM, Adak, Weather by CustomWeather, © 2015

Note: Actual official high and low records may vary slightly from our data, if they occured in-between our weather recording intervals... More about our weather records

Advertising

Adak weather history for previous 24 hours

 ConditionsComfort  
Time TempWeatherWind HumidityBarometerVisibility
6:16 AM
Tue, Mar 3
30 °FOvercast.7 mph69%30.33 "Hg10 mi
5:56 AM30 °FOvercast.No wind69%30.34 "Hg10 mi
5:36 AM30 °FPassing clouds.No wind69%30.34 "Hg10 mi
5:16 AM30 °FPassing clouds.6 mph69%30.33 "Hg10 mi
4:56 AM32 °FPassing clouds.6 mph64%30.33 "Hg10 mi
4:36 AM32 °FPassing clouds.3 mph64%30.33 "Hg10 mi
4:16 AM28 °FClear.8 mph64%30.33 "Hg10 mi
3:56 AM30 °FPassing clouds.7 mph69%30.33 "Hg10 mi
3:36 AM32 °FPassing clouds.6 mph64%30.34 "Hg10 mi
3:16 AM30 °FClear.8 mph64%30.34 "Hg10 mi
2:56 AM32 °FClear.8 mph64%30.32 "Hg10 mi
2:36 AM32 °FClear.13 mph60%30.32 "Hg10 mi
2:16 AM34 °FPassing clouds.9 mph56%30.31 "Hg10 mi
1:56 AM32 °FClear.3 mph64%30.31 "Hg10 mi
1:36 AM34 °FClear.No wind60%30.32 "Hg10 mi
1:16 AM30 °FClear.12 mph64%30.31 "Hg10 mi
12:56 AM32 °FClear.8 mph60%30.31 "Hg10 mi
12:36 AM34 °FClear.10 mph60%30.30 "Hg10 mi
12:16 AM32 °FPassing clouds.No wind60%30.30 "Hg10 mi
11:56 PM
Mon, Mar 2
34 °FMostly cloudy.7 mph60%30.31 "Hg10 mi
11:36 PM34 °FOvercast.8 mph60%30.31 "Hg10 mi
10:56 PM34 °FPassing clouds.13 mph56%30.30 "Hg10 mi
10:36 PM34 °FOvercast.8 mph60%30.30 "Hg10 mi
10:16 PM34 °FPassing clouds.13 mph60%30.29 "Hg10 mi
9:56 PM34 °FPassing clouds.15 mph56%30.28 "Hg10 mi
9:36 PM34 °FPassing clouds.15 mph60%30.27 "Hg10 mi
9:16 PM36 °FPassing clouds.17 mph56%30.27 "Hg10 mi
8:56 PM34 °FPassing clouds.17 mph60%30.26 "Hg10 mi
8:36 PM34 °FPassing clouds.15 mph60%30.25 "Hg10 mi
8:16 PM36 °FPassing clouds.17 mph60%30.24 "Hg10 mi
7:56 PM34 °FPassing clouds.18 mph60%30.23 "Hg10 mi
7:36 PM34 °FPassing clouds.26 mph60%30.23 "Hg10 mi
7:16 PM34 °FOvercast.22 mph60%30.22 "Hg10 mi
6:56 PM36 °FMostly cloudy.28 mph56%30.21 "Hg10 mi
6:36 PM36 °FMostly cloudy.16 mph56%30.20 "Hg10 mi
6:16 PM36 °FMostly cloudy.15 mph56%30.20 "Hg10 mi
5:56 PM36 °FMostly cloudy.15 mph56%30.19 "Hg10 mi
5:36 PM36 °FMostly cloudy.22 mph60%30.18 "Hg10 mi
4:56 PM36 °FOvercast.22 mph56%30.17 "Hg10 mi
4:36 PM36 °FOvercast.17 mph65%30.16 "Hg10 mi
4:16 PM36 °FOvercast.20 mph65%30.16 "Hg10 mi
3:56 PM36 °FMostly cloudy.20 mph70%30.15 "Hg10 mi
3:36 PM36 °FMore clouds than sun.15 mph70%30.14 "Hg5 mi
3:16 PM36 °FMore clouds than sun.18 mph70%30.14 "Hg8 mi
2:56 PM36 °FMostly cloudy.18 mph70%30.13 "Hg8 mi
2:36 PM36 °FMostly cloudy.14 mph70%30.13 "Hg10 mi
2:16 PM37 °FMostly cloudy.15 mph65%30.12 "Hg10 mi
1:56 PM37 °FMostly cloudy.18 mph65%30.11 "Hg10 mi
1:36 PM37 °FMostly cloudy.21 mph65%30.11 "Hg10 mi
1:16 PM37 °FBroken clouds.17 mph70%30.10 "Hg9 mi
12:56 PM36 °FMostly cloudy.16 mph75%30.09 "Hg2 mi
12:36 PM37 °FCloudy.16 mph70%30.08 "Hg4 mi
12:16 PM39 °FMore clouds than sun.18 mph65%30.07 "Hg10 mi
11:56 AM39 °FMore clouds than sun.20 mph65%30.06 "Hg10 mi
11:36 AM39 °FOvercast.20 mph65%30.05 "Hg10 mi
11:16 AM37 °FMostly cloudy.18 mph65%30.04 "Hg9 mi
10:56 AM37 °FMostly cloudy.18 mph60%30.02 "Hg10 mi
10:36 AM37 °FMostly cloudy.17 mph60%30.00 "Hg10 mi
10:16 AM37 °FMore clouds than sun.18 mph60%30.00 "Hg10 mi
9:56 AM37 °FMore clouds than sun.16 mph60%29.99 "Hg10 mi
9:36 AM37 °FMostly cloudy.20 mph60%29.98 "Hg10 mi
9:16 AM37 °FBroken clouds.13 mph65%29.98 "Hg10 mi
8:56 AM36 °FBroken clouds.15 mph70%29.97 "Hg3 mi
8:36 AM37 °FMostly cloudy.25 mph65%29.96 "Hg10 mi
8:16 AM37 °FMore clouds than sun.14 mph65%29.94 "Hg10 mi
7:56 AM36 °FMostly cloudy.18 mph75%29.93 "Hg10 mi
7:36 AM36 °FMostly cloudy.25 mph75%29.92 "Hg4 mi
7:16 AM36 °FMostly cloudy.14 mph70%29.92 "Hg9 mi
Weather by CustomWeather, © 2015

See weather overviewHow to use our weather pages